[[{"header":{"parameterUnit":"m.s-1","parameterCategory":1,"la1":30.2991,"la2":30.254,"lo1":-89.0895,"lo2":-89.0444,"dy":0.0017,"dx":0.0017,"nx":28,"ny":28,"refTime":"2025-05-21T03:00:00:Z","depth":0,"parameterNumber":2,"parameterNumberName":"U-component_of_WINDS"},"data":[0,0,0,0,0,0,0,0,0,0,0,0,0,0,0,0,0,0,0,0,0,0,0,0,0,0,0,0,0,0,0,0,0,0,0,0,0,0,0,0,0,0,0,0,0,0,0,0,0,0,0,0,0,0,0,0,0,0,2.2055,2.2056,0,2.2178,2.2179,2.2181,2.2193,2.2192,2.219,2.2189,2.2316,2.2321,2.2325,0,0,0,0,0,0,0,0,0,0,0,0,0,2.1831,2.1835,2.2055,2.2056,2.2058,2.2178,2.2179,2.2181,2.2193,2.2192,2.219,2.2189,2.2315,2.232,2.2326,0,0,0,0,0,0,0,0,0,0,0,0,0,2.1938,2.1836,2.2054,2.2078,2.2082,2.2177,2.218,2.2182,2.2193,2.2192,2.219,2.2188,2.2313,2.2319,2.2326,2.2407,0,0,2.2347,2.235,0,0,0,0,0,0,0,0,2.1932,2.1946,2.2073,2.2077,2.2081,2.2168,2.2147,2.2257,2.2194,2.2151,2.2189,2.2187,2.2268,2.2279,2.2306,2.2413,2.2418,2.2348,2.2352,2.2355,2.2357,0,0,0,0,0,0,0,2.1925,2.1941,2.2103,2.2075,2.208,2.2083,2.2096,2.2168,2.2219,2.2155,2.2156,2.217,2.227,2.23,2.2309,2.242,2.2348,2.2354,2.2358,2.2361,2.2599,2.2601,0,0,0,0,0,0,2.1913,2.1935,2.21,2.2107,2.2,2.2089,2.2103,2.2142,2.2218,2.2228,2.2172,2.217,2.2289,2.2301,2.2314,2.2413,2.2355,2.2361,2.2365,2.2597,2.26,2.2602,0,0,0,0,0,0,2.1908,2.1927,2.2095,2.2021,2.2043,2.2094,2.2138,2.2145,2.2175,2.2231,2.224,2.2192,2.2288,2.2304,2.2384,2.2417,2.2364,2.2371,2.2595,2.2598,2.2601,2.2612,0,0,0,0,0,0,2.1901,2.1925,2.1956,2.2022,2.2047,2.2162,2.214,2.2149,2.2187,2.2186,2.2253,2.2262,2.2288,2.2373,2.239,2.2426,2.2376,2.2592,2.2596,2.26,2.2609,2.2615,2.2621,0,0,0,0,0,2.1893,2.1955,2.1958,2.1978,2.2087,2.2164,2.2178,2.2206,2.2189,2.2221,2.2257,2.226,2.2411,2.2381,2.2401,2.2439,2.259,2.2595,2.26,2.2606,2.2614,2.262,0,0,0,0,0,0,2.1892,2.1964,2.1968,2.2052,2.2102,2.2166,2.2206,2.2213,2.2269,2.2266,2.2298,2.2313,2.2391,2.2423,2.2389,2.2521,2.2499,2.2508,2.2497,2.2505,2.2511,2.2501,2.2382,0,0,0,0,0,2.1901,2.1958,2.2018,2.2087,2.2111,2.2155,2.2189,2.2206,2.2259,2.228,2.2322,2.2373,2.2433,2.2471,2.2528,2.2614,2.2628,2.265,2.2655,2.266,2.2667,2.2714,2.2724,2.2619,2.2619,2.2619,0,0,2.1921,2.1968,2.2001,2.2087,2.2128,2.2186,2.2172,2.2234,2.2277,2.229,2.2367,2.24,2.2459,2.2542,2.258,2.2571,2.27,2.2667,2.267,2.2675,2.2721,2.2731,2.2739,2.2622,2.2621,2.2621,0,0,2.1987,2.2028,2.209,2.2131,2.2192,2.2221,2.2235,2.2299,2.2321,2.2399,2.2409,2.2461,2.2563,2.2604,2.2639,2.2721,2.2726,2.2739,2.277,2.2815,2.2824,2.2831,2.286,2.287,2.2746,2.2746,2.2746,0,2.2004,2.2092,2.2121,2.2182,2.222,2.2234,2.2296,2.2335,2.2412,2.2437,2.2425,2.2552,2.2594,2.2686,2.2706,2.2734,2.2751,2.2731,2.282,2.2828,2.2835,2.2863,2.2874,2.2747,2.2747,2.2747,2.2747,0,2.2109,2.217,2.2213,2.2286,2.2329,2.2391,2.2429,2.2468,2.2482,2.2512,2.2591,2.2641,2.2709,2.2732,2.2746,2.2827,2.2819,2.2813,2.2792,2.2846,2.2873,2.2884,2.2749,2.2749,2.2748,2.2748,0,0,2.2176,2.2266,2.2281,2.2314,2.2383,2.2431,2.2494,2.256,2.2593,2.2646,2.2699,2.2784,2.2779,2.2819,2.2838,2.2878,2.2939,2.2868,2.2869,2.2878,2.303,2.3033,2.3045,2.2943,2.2945,2.2947,2.3025,0,2.2249,2.2361,2.2389,2.2484,2.254,2.2555,2.2609,2.2658,2.2688,2.274,2.2773,2.2833,2.2822,2.2846,2.2887,2.2923,2.297,2.2918,2.2992,2.2995,2.2976,2.3059,2.3062,2.3133,2.3035,2.3037,2.3039,0,2.2349,2.2404,2.2504,2.2566,2.2591,2.2639,2.2702,2.2752,2.2807,2.2826,2.287,2.2885,2.2951,2.2927,2.3018,2.2982,2.3014,2.3037,2.304,2.3047,2.3019,2.3067,2.3156,2.3166,2.3055,2.3054,2.3053,0,2.2386,2.2486,2.2559,2.2587,2.2661,2.2695,2.2727,2.2781,2.2819,2.2874,2.2899,2.2961,2.2995,2.3043,2.3074,2.3054,2.3163,2.3141,2.318,2.3179,2.3201,2.3199,2.3295,2.3224,2.3224,2.3223,2.3223,0,2.2464,2.2525,2.2576,2.2621,2.269,2.2722,2.2789,2.2822,2.2869,2.2921,2.2938,2.2986,2.3025,2.3079,2.3104,2.3175,2.3191,2.3208,2.3213,2.3205,2.3203,2.3226,2.3222,2.3226,2.3226,2.3225,2.3224,0,2.2517,2.2554,2.2634,2.2698,2.2716,2.2763,2.2818,2.2862,2.2893,2.2958,2.2975,2.3023,2.3087,2.3123,2.3204,2.3221,2.33,2.3304,2.3281,2.3283,2.3319,2.3315,2.3433,2.345,2.3368,2.3369,2.3369,0,2.2563,2.261,2.2679,2.2715,2.2748,2.2805,2.2844,2.2878,2.2917,2.2984,2.302,2.3085,2.3138,2.324,2.3282,2.3344,2.3349,2.3386,2.3358,2.3348,2.3348,2.3344,2.3349,2.339,2.3391,2.3392,2.3392,0,2.2641,2.2657,2.2712,2.2774,2.282,2.2871,2.2921,2.2949,2.2991,2.3035,2.31,2.3142,2.3224,2.3288,2.3353,2.3387,2.3397,2.3401,2.3413,2.3404,2.3389,2.3397,2.3293,2.3397,2.3397,2.3397,2.3396,2.3396,2.2691,2.2734,2.2789,2.285,2.2891,2.2938,2.2982,2.3019,2.3074,2.3143,2.316,2.3229,2.3283,2.3372,2.3407,2.3461,2.3455,2.3473,2.3477,2.348,2.3481,2.3381,2.3474,2.3474,2.3473,2.3473,2.3473,0,2.2769,2.2806,2.2862,2.2931,2.2979,2.2985,2.3041,2.308,2.314,2.3191,2.3243,2.3318,2.338,2.3428,2.3492,2.3526,2.3532,2.3541,2.3539,2.3546,2.3484,2.3466,2.3535,2.3535,2.3535,2.3535,2.3535,2.3535,2.2815,2.2887,2.291,2.3003,2.3039,2.3106,2.3138,2.3181,2.3221,2.3304,2.3356,2.3386,2.3436,2.3503,2.3561,2.3573,2.3595,2.3604,2.3617,2.3557,2.3551,2.3544,2.3528,2.3609,2.3609,2.3675,2.3675,2.3676]},{"header":{"parameterUnit":"m.s-1","parameterCategory":1,"la1":30.2991,"la2":30.254,"lo1":-89.0895,"lo2":-89.0444,"dy":0.0017,"dx":0.0017,"nx":28,"ny":28,"refTime":"2025-05-21T03:00:00:Z","depth":0,"parameterNumber":3,"parameterNumberName":"V-component_of_WINDS"},"data":[0,0,0,0,0,0,0,0,0,0,0,0,0,0,0,0,0,0,0,0,0,0,0,0,0,0,0,0,0,0,0,0,0,0,0,0,0,0,0,0,0,0,0,0,0,0,0,0,0,0,0,0,0,0,0,0,0,0,3.4823,3.4823,0,3.4803,3.4803,3.4803,3.4754,3.4753,3.4752,3.4751,3.4731,3.4732,3.4732,0,0,0,0,0,0,0,0,0,0,0,0,0,3.4819,3.482,3.4823,3.4823,3.4823,3.4803,3.4803,3.4802,3.4754,3.4753,3.4752,3.4751,3.4731,3.4732,3.4732,0,0,0,0,0,0,0,0,0,0,0,0,0,3.4812,3.482,3.4823,3.4796,3.4794,3.4803,3.4803,3.4802,3.4755,3.4753,3.4752,3.475,3.4731,3.4731,3.4732,3.4766,0,0,3.4734,3.4734,0,0,0,0,0,0,0,0,3.4813,3.4813,3.48,3.4798,3.4795,3.478,3.4794,3.479,3.4755,3.4769,3.4751,3.4749,3.4749,3.4748,3.4747,3.4765,3.4764,3.4734,3.4734,3.4735,3.4735,0,0,0,0,0,0,0,3.4813,3.4813,3.4815,3.48,3.4797,3.4785,3.4782,3.4793,3.4768,3.4768,3.4765,3.4763,3.4747,3.4747,3.4746,3.4764,3.4734,3.4735,3.4735,3.4735,3.4808,3.481,0,0,0,0,0,0,3.4818,3.4814,3.4816,3.4815,3.48,3.4786,3.4783,3.4786,3.4768,3.4763,3.4764,3.4761,3.4746,3.4746,3.4745,3.4783,3.4735,3.4735,3.4736,3.4807,3.4808,3.481,0,0,0,0,0,0,3.4818,3.4818,3.4817,3.4813,3.4812,3.4788,3.4792,3.4787,3.4786,3.4764,3.476,3.4769,3.4745,3.4745,3.4761,3.4782,3.4735,3.4736,3.4805,3.4807,3.4809,3.486,0,0,0,0,0,0,3.4818,3.4819,3.4832,3.4814,3.4812,3.4833,3.4793,3.4787,3.4787,3.4783,3.4768,3.4764,3.4744,3.476,3.4762,3.4782,3.4737,3.4803,3.4806,3.4809,3.4857,3.4864,3.487,0,0,0,0,0,3.4818,3.4847,3.4833,3.4833,3.4828,3.4834,3.4833,3.481,3.4789,3.4802,3.4788,3.4764,3.478,3.4763,3.4764,3.4784,3.4801,3.4805,3.4808,3.4853,3.4863,3.487,0,0,0,0,0,0,3.4868,3.4844,3.4828,3.4852,3.4845,3.4826,3.4841,3.4821,3.482,3.4815,3.4787,3.4784,3.4804,3.4796,3.4777,3.4816,3.4787,3.479,3.4821,3.4829,3.4836,3.4837,3.4737,0,0,0,0,0,3.4882,3.4889,3.4868,3.4891,3.4889,3.4866,3.4867,3.485,3.4842,3.4839,3.4826,3.4819,3.4822,3.4825,3.4827,3.4855,3.4851,3.487,3.4877,3.4883,3.4886,3.49,3.4908,3.4822,3.4822,3.4822,0,0,3.4911,3.4899,3.4905,3.4901,3.4894,3.4901,3.4864,3.4874,3.4879,3.4841,3.4855,3.4845,3.4836,3.4858,3.4867,3.4852,3.4909,3.4887,3.4892,3.4892,3.4904,3.4912,3.492,3.4824,3.4824,3.4823,0,0,3.4967,3.4959,3.4977,3.497,3.496,3.4944,3.4948,3.4932,3.4924,3.4938,3.4909,3.4915,3.4922,3.4916,3.4914,3.4967,3.4945,3.4968,3.5004,3.5018,3.5024,3.503,3.5049,3.5056,3.4972,3.4972,3.4972,0,3.5004,3.5014,3.4989,3.5,3.4999,3.4964,3.4982,3.4977,3.4968,3.4968,3.4951,3.4958,3.4949,3.4969,3.4982,3.4981,3.4985,3.497,3.5026,3.5031,3.5036,3.5053,3.5061,3.4975,3.4975,3.4974,3.4974,0,3.506,3.5068,3.5084,3.5075,3.5076,3.509,3.5067,3.507,3.5053,3.5039,3.5053,3.5042,3.504,3.5044,3.5027,3.5061,3.5052,3.5031,3.5,3.5048,3.5063,3.507,3.4979,3.4978,3.4977,3.4976,0,0,3.5148,3.5124,3.513,3.5126,3.5111,3.5116,3.5129,3.5127,3.5131,3.5126,3.5136,3.5141,3.5121,3.5119,3.5101,3.5113,3.5155,3.509,3.5089,3.5102,3.5191,3.5207,3.5215,3.514,3.5142,3.5143,3.5192,0,3.52,3.522,3.5197,3.5222,3.5229,3.5196,3.5207,3.5199,3.5186,3.519,3.5176,3.518,3.5154,3.5152,3.5162,3.5148,3.5173,3.5144,3.5149,3.515,3.5152,3.5224,3.524,3.5288,3.5198,3.5199,3.52,0,3.5263,3.526,3.5286,3.5269,3.5271,3.5282,3.5278,3.5282,3.5272,3.5262,3.5259,3.5237,3.5248,3.5219,3.5234,3.5215,3.5216,3.5209,3.521,3.521,3.5177,3.5224,3.5302,3.5309,3.5209,3.5209,3.5208,0,3.5324,3.5326,3.5342,3.5339,3.532,3.5328,3.532,3.5309,3.5309,3.5306,3.5306,3.5304,3.5303,3.5302,3.528,3.5261,3.5297,3.5267,3.5289,3.529,3.5298,3.5298,3.5377,3.5299,3.5299,3.5299,3.5299,0,3.5384,3.5401,3.5369,3.5378,3.5396,3.5369,3.5388,3.5377,3.5367,3.5374,3.5345,3.5352,3.5323,3.5327,3.531,3.5325,3.5325,3.5316,3.5312,3.5319,3.532,3.5319,3.5315,3.5301,3.5301,3.53,3.53,0,3.5454,3.5433,3.5448,3.5429,3.5424,3.5438,3.5421,3.5429,3.5414,3.5423,3.5424,3.5401,3.5404,3.5382,3.5381,3.5369,3.5392,3.5382,3.5395,3.5392,3.5415,3.5413,3.5496,3.5505,3.5423,3.5423,3.5424,0,3.5494,3.5506,3.5488,3.549,3.5484,3.5488,3.5488,3.5462,3.5463,3.5453,3.5462,3.5462,3.5461,3.5467,3.5451,3.545,3.5439,3.5468,3.5438,3.5445,3.5439,3.5438,3.5439,3.5474,3.5475,3.5476,3.5477,0,3.5567,3.5556,3.5556,3.5553,3.5554,3.555,3.5545,3.5549,3.552,3.5523,3.5525,3.5525,3.5523,3.5524,3.5519,3.5511,3.5489,3.5486,3.5491,3.5498,3.5505,3.5501,3.5411,3.5484,3.5483,3.5483,3.5482,3.5482,3.5623,3.5632,3.562,3.5621,3.5615,3.561,3.5616,3.5602,3.5604,3.56,3.5585,3.559,3.558,3.5571,3.5565,3.5569,3.5555,3.5562,3.5564,3.5566,3.557,3.5505,3.5568,3.5568,3.5567,3.5567,3.5567,0,3.5693,3.5684,3.5686,3.5679,3.568,3.5659,3.5652,3.5654,3.5659,3.5651,3.565,3.5653,3.5653,3.5636,3.5635,3.5641,3.563,3.5641,3.564,3.5639,3.5583,3.5579,3.5649,3.5649,3.5649,3.5649,3.5649,3.5649,3.573,3.5744,3.5731,3.5741,3.5732,3.5737,3.5734,3.573,3.5723,3.5727,3.5727,3.5716,3.5704,3.5701,3.5701,3.5696,3.5696,3.571,3.5702,3.5651,3.5643,3.5635,3.5631,3.5711,3.5711,3.5757,3.5757,3.5758]}]]